Culdrose, United Kingdom

9:57 PM BST on September 19, 2017 (GMT +0100)
Culdrose Navy

Weather History for EGDR - January, 2014

Change the Weather History Date:

Saturday, January 4, 2014

  Actual Average Record
Temperature  
Mean Temperature 40 °F -  
Max Temperature 47 °F 46 °F 55 °F (1999)
Min Temperature 33 °F 39 °F 28 °F (2003)
Degree Days  
Heating Degree Days 25    
Moisture  
Dew Point 37 °F    
Average Humidity 77    
Maximum Humidity 100    
Minimum Humidity 48    
Precipitation  
Precipitation 0.20 in - - ()
Sea Level Pressure  
Sea Level Pressure 29.31 in    
Wind  
Wind Speed 11 mph ()    
Max Wind Speed 18 mph    
Max Gust Speed 30 mph    
Visibility 8.5 miles    
Events Rain    
Averages and records for this station are not official NWS values.
T = Trace of Precipitation, MM = Missing Value Source: Averaged Metar Reports

Daily Weather History Graph

Daily Weather History Graph

Search for Another Location

Airport or City:

Trip Planner

Search our weather history database for the weather conditions in past years. The results will help you decide how hot, cold, wet, or windy it might be!

Date:

Astronomy

Jan. 04, 2014 Rise Set
Actual Time 8:19 AM GMT 4:32 PM GMT
Civil Twilight 7:41 AM GMT 5:10 PM GMT
Nautical Twilight 7:00 AM GMT 5:51 PM GMT
Astronomical Twilight 6:20 AM GMT 6:31 PM GMT
Moon 9:52 AM GMT (1/4) 9:02 PM GMT (1/4)
Length of Visible Light 9h 29m
Length of Day
8h 13m
Waxing Crescent, 13% of the Moon is Illuminated
Jan 4
Waxing Crescent
Jan 8
First Quarter
Jan 16
Full
Jan 24
Last Quarter
Jan 30
New

Hourly Weather History & Observations

Time (GMT) Temp. Windchill Dew Point Humidity Pressure Visibility Wind Dir Wind Speed Gust Speed Precip Events Conditions
12:00 AM 45 °F - 42 °F 86% 29.43 in 7 mi SW 12.7 mph - - Rain Heavy Rain Showers
12:50 AM 46.4 °F 39.8 °F 41.0 °F 81% 29.36 in 6.2 mi SW 16.1 mph - N/A Rain Light Rain
1:00 AM 47 °F - 40 °F 69% 29.38 in 7 mi SW 16.1 mph - - Rain Light Rain
1:50 AM 46.4 °F 39.8 °F 42.8 °F 87% 29.33 in 6.2 mi SSW 16.1 mph 27.6 mph N/A Rain Rain
2:00 AM 46 °F - 43 °F 85% 29.34 in 6 mi SSW 16.1 mph - - Rain Rain
2:50 AM 46.4 °F 41.1 °F 42.8 °F 87% 29.27 in 6.2 mi SSW 11.5 mph - N/A Rain Light Rain
3:00 AM 46 °F - 42 °F 81% 29.30 in 10 mi SSW 11.5 mph - - Rain Light Rain
3:50 AM 44.6 °F 38.8 °F 42.8 °F 93% 29.24 in 6.2 mi South 11.5 mph - N/A   Haze
4:00 AM 45 °F - 43 °F 88% 29.24 in 7 mi South 11.5 mph - - Rain Light Rain
4:50 AM 46.4 °F 41.1 °F 42.8 °F 87% 29.24 in 6.2 mi SSW 11.5 mph 23.0 mph N/A   Haze
5:00 AM 47 °F - 42 °F 76% 29.24 in 11 mi SSW 11.5 mph - -   Haze
5:50 AM 46.4 °F 39.8 °F 42.8 °F 87% 29.21 in 6.2 mi SW 16.1 mph - N/A   Haze
6:00 AM 47 °F - 42 °F 78% 29.21 in 11 mi SW 16.1 mph - -   Haze
6:50 AM 46.4 °F 40.7 °F 41.0 °F 81% 29.18 in 6.2 mi WSW 12.7 mph - N/A   Overcast
7:00 AM 47 °F - 41 °F 72% 29.21 in 12 mi WSW 12.7 mph - -   Overcast
7:50 AM 44.6 °F 38.8 °F 37.4 °F 76% 29.18 in 6.2 mi WNW 11.5 mph - N/A Rain Light Rain
8:00 AM 44 °F - 38 °F 73% 29.21 in 7 mi WNW 11.5 mph - - Rain Light Rain
8:50 AM 42.8 °F 38.6 °F 39.2 °F 87% 29.21 in 6.2 mi WNW 6.9 mph - N/A   Mostly Cloudy
9:00 AM 43 °F - 39 °F 80% 29.22 in 9 mi WNW 6.9 mph - - Rain Light Rain
9:50 AM 44.6 °F 40.2 °F 37.4 °F 76% 29.21 in 6.2 mi West 8.1 mph - N/A   Mostly Cloudy
10:00 AM 45 °F - 38 °F 68% 29.23 in 9 mi West 8.1 mph - -   Overcast
10:50 AM 44.6 °F 40.2 °F 39.2 °F 81% 29.24 in 6.2 mi WNW 8.1 mph - N/A   Overcast
11:00 AM 44 °F - 40 °F 79% 29.25 in 9 mi WNW 8.1 mph - -   Haze
11:50 AM 44.6 °F 38.1 °F 35.6 °F 71% 29.24 in 6.2 mi West 13.8 mph 29.9 mph N/A   Partly Cloudy
12:00 PM 45 °F - 36 °F 62% 29.25 in 10 mi West 13.8 mph - -   Mostly Cloudy
12:50 PM 46.4 °F 39.8 °F 33.8 °F 62% 29.24 in 6.2 mi West 16.1 mph 27.6 mph N/A   Partly Cloudy
1:00 PM 46 °F - 33 °F 50% 29.26 in 12 mi West 16.1 mph - -   Partly Cloudy
1:50 PM 46.4 °F 39.2 °F 33.8 °F 62% 29.27 in 6.2 mi West 18.4 mph 29.9 mph N/A   Scattered Clouds
2:00 PM 46 °F - 34 °F 52% 29.29 in 16 mi West 18.4 mph - -   Partly Cloudy
2:50 PM 46.4 °F 40.1 °F 33.8 °F 62% 29.30 in 6.2 mi WNW 15.0 mph 26.5 mph N/A   Scattered Clouds
3:00 PM 46 °F - 33 °F 49% 29.31 in 16 mi WNW 15.0 mph - -   Partly Cloudy
3:50 PM 44.6 °F 38.1 °F 32.0 °F 61% 29.33 in 6.2 mi West 13.8 mph - N/A   Scattered Clouds
4:00 PM 45 °F - 33 °F 50% 29.34 in 16 mi West 13.8 mph - -   Scattered Clouds
4:50 PM 44.6 °F 38.8 °F 33.8 °F 66% 29.33 in 6.2 mi West 11.5 mph 24.2 mph N/A   Mostly Cloudy
5:00 PM 45 °F - 34 °F 54% 29.36 in 11 mi West 11.5 mph - -   Mostly Cloudy
5:50 PM 46.4 °F 39.8 °F 32.0 °F 57% 29.33 in 6.2 mi WSW 16.1 mph 29.9 mph N/A   Haze
6:00 PM 46 °F - 33 °F 48% 29.36 in 10 mi WSW 16.1 mph - -   Haze
6:50 PM 41.0 °F 34.7 °F 37.4 °F 87% 29.36 in 4.3 mi WSW 10.4 mph 26.5 mph N/A Rain Rain
7:00 PM 40 °F - 37 °F 84% 29.38 in 4 mi WSW 10.4 mph - - Rain Rain
7:50 PM 33.8 °F 30.8 °F 33.8 °F 100% 29.36 in 6.2 mi NNW 3.5 mph - N/A   Scattered Clouds
8:00 PM 35 °F - 34 °F 92% 29.38 in 16 mi NNW 3.5 mph - - Rain Light Rain
8:50 PM 33.8 °F - 33.8 °F 100% 29.39 in 6.2 mi East 1.2 mph - N/A   Partly Cloudy
9:00 PM 34 °F - 33 °F 96% 29.41 in 16 mi East 1.2 mph - -   Partly Cloudy
9:50 PM 33.8 °F 29.6 °F 33.8 °F 100% 29.42 in 6.2 mi WNW 4.6 mph - N/A   Partly Cloudy
10:00 PM 34 °F - 33 °F 95% 29.44 in 12 mi WNW 4.6 mph - -   Scattered Clouds
10:50 PM 37.4 °F 33.8 °F 35.6 °F 93% 29.47 in 6.2 mi West 4.6 mph - N/A   Scattered Clouds
11:00 PM 37 °F - 35 °F 92% 29.48 in 16 mi West 4.6 mph - -   Mostly Cloudy
11:50 PM 41.0 °F 34.7 °F 37.4 °F 87% 29.50 in 6.2 mi NW 10.4 mph - N/A   Partly Cloudy